Accueil
METAR-TAF:

METAR-TAF

Aéroports :

Holbeach, Angleterre

RAF

latitude: 52-52N, longitude: 000-09E, altitude: 3 m

Observation

Le bulletin a été fait il y a 6 heures et 15 minutes, à 15:50 UTC
Vent 13 kt de ouest
Température 8°C
Humidité 81%
Pression 1013 hPa
Visibilité 10 km ou plus
Quelques nuages à une hauteur de 4000 ft
Nuages épars à une hauteur de 12000 ft

METAR: EGYH 221550Z 28013KT 9999 FEW040 SCT120 08/05 Q1013 BLU

Heure: 22:05 (22:05 UTC)


TAF: absent

Observations et prévisions météorologiques de plus de 4000 aéroports (messages METAR et TAF).

Les stations disponibles sont représentées par des disques jaunes et rouges sur la carte.

Passer la souris dessus pour voir le nom de la station.

Cliquer dessus pour voir les observations et prévisions météorologiques.

Pour changer de carte: cliquez sur les boutons verts avec une croix noire pour zoomer, sur le bouton vert avec un tiret pour effectuer un zoom arrière, ou sur les flèches vertes pour les cartes adjacentes.


METAR-TAF: